[[{"header":{"parameterUnit":"m.s-1","parameterCategory":1,"la1":30.2991,"la2":30.254,"lo1":-89.0895,"lo2":-89.0444,"dy":0.0017,"dx":0.0017,"nx":28,"ny":28,"refTime":"2025-07-30T21:00:00:Z","depth":0,"parameterNumber":2,"parameterNumberName":"U-component_of_WINDS"},"data":[0,0,0,0,0,0,0,0,0,0,0,0,0,0,0,0,0,0,0,0,0,0,0,0,0,0,0,0,0,0,0,0,0,0,0,0,0,0,0,0,0,0,0,0,0,0,0,0,0,0,0,0,0,0,0,0,0,0,3.3774,3.3775,0,3.3904,3.3905,3.3907,3.3904,3.3902,3.39,3.3899,3.4037,3.4042,3.4047,0,0,0,0,0,0,0,0,0,0,0,0,0,3.3527,3.3532,3.3773,3.3775,3.3777,3.3904,3.3906,3.3907,3.3904,3.3902,3.39,3.3898,3.4035,3.4041,3.4048,0,0,0,0,0,0,0,0,0,0,0,0,0,3.3644,3.3533,3.3773,3.379,3.3793,3.3903,3.3906,3.3908,3.3905,3.3902,3.3899,3.3897,3.4033,3.4041,3.4049,3.4152,0,0,3.4073,3.4077,0,0,0,0,0,0,0,0,3.3637,3.3653,3.3786,3.3789,3.3793,3.3885,3.3869,3.399,3.3905,3.3862,3.3899,3.3895,3.3989,3.4,3.4031,3.4158,3.4164,3.4074,3.4079,3.4082,3.4085,0,0,0,0,0,0,0,3.3629,3.3647,3.3825,3.3788,3.3792,3.3793,3.3807,3.3892,3.3939,3.3866,3.3866,3.3881,3.399,3.4023,3.4034,3.4166,3.4074,3.4081,3.4086,3.4089,3.4388,3.4391,0,0,0,0,0,0,3.3616,3.364,3.3821,3.3829,3.3706,3.38,3.3815,3.3858,3.3938,3.3948,3.3883,3.3881,3.4011,3.4025,3.4039,3.4167,3.4082,3.409,3.4094,3.4385,3.4389,3.4393,0,0,0,0,0,0,3.3611,3.3633,3.3816,3.3735,3.3758,3.3807,3.3855,3.3862,3.3895,3.3951,3.396,3.3908,3.4009,3.4028,3.4124,3.4172,3.4093,3.4101,3.4382,3.4387,3.4391,3.4423,0,0,0,0,0,0,3.3604,3.3631,3.3669,3.3736,3.3762,3.3897,3.3858,3.3866,3.3908,3.3906,3.3977,3.3986,3.4008,3.4112,3.4132,3.4181,3.4107,3.4378,3.4384,3.4389,3.4418,3.4428,3.4437,0,0,0,0,0,3.3595,3.3673,3.3671,3.3693,3.3811,3.39,3.3916,3.3938,3.3912,3.3952,3.3989,3.3984,3.4163,3.4122,3.4145,3.4197,3.4375,3.4382,3.4389,3.4414,3.4426,3.4437,0,0,0,0,0,0,3.3612,3.3682,3.368,3.3782,3.3835,3.3899,3.395,3.395,3.4013,3.4008,3.4035,3.4051,3.4149,3.4182,3.4136,3.4302,3.4266,3.4278,3.4277,3.4289,3.4299,3.4289,3.4114,0,0,0,0,0,3.3627,3.3692,3.375,3.3834,3.3861,3.3901,3.3941,3.3953,3.401,3.4033,3.4076,3.4133,3.4202,3.4247,3.4314,3.4422,3.4439,3.447,3.4479,3.4487,3.4497,3.456,3.4574,3.4416,3.4416,3.4416,0,0,3.366,3.3706,3.3746,3.3839,3.3882,3.395,3.392,3.3993,3.4045,3.4045,3.4139,3.4173,3.4238,3.4341,3.4389,3.4372,3.4545,3.4496,3.4501,3.4508,3.4568,3.4583,3.4597,3.4421,3.442,3.4419,0,0,3.3755,3.3795,3.3871,3.3914,3.3979,3.4005,3.4023,3.4088,3.411,3.4205,3.4207,3.4269,3.4387,3.4434,3.4474,3.4588,3.4587,3.4609,3.466,3.472,3.4733,3.4744,3.4787,3.4802,3.4619,3.4619,3.4619,0,3.3788,3.3889,3.391,3.3984,3.4026,3.4028,3.4106,3.4147,3.4231,3.4261,3.4241,3.439,3.4434,3.455,3.4578,3.4609,3.4632,3.4602,3.4729,3.474,3.4751,3.4793,3.4809,3.4622,3.4621,3.4621,3.4621,0,3.3928,3.3999,3.4052,3.4132,3.418,3.4256,3.429,3.4336,3.4345,3.4374,3.4472,3.4525,3.4603,3.4631,3.4641,3.4749,3.4737,3.4722,3.4687,3.4768,3.4808,3.4824,3.4625,3.4624,3.4624,3.4623,0,0,3.4038,3.4128,3.4148,3.4185,3.4257,3.4313,3.4389,3.4465,3.4505,3.4563,3.463,3.473,3.4718,3.4763,3.4778,3.4831,3.4921,3.481,3.4812,3.483,3.5046,3.5058,3.5076,3.492,3.4923,3.4925,3.5042,0,3.4142,3.4276,3.4298,3.4417,3.4484,3.4487,3.4554,3.4607,3.4637,3.4699,3.4733,3.4804,3.4781,3.4808,3.486,3.4899,3.4965,3.489,3.4985,3.4988,3.497,3.5096,3.5109,3.5216,3.5057,3.5059,3.5061,0,3.4281,3.4342,3.4467,3.4532,3.4561,3.4621,3.4693,3.4752,3.4812,3.483,3.4881,3.489,3.4973,3.4932,3.5047,3.4996,3.5036,3.5061,3.5066,3.5077,3.5031,3.5113,3.525,3.5267,3.5086,3.5084,3.5082,0,3.4351,3.4464,3.4555,3.4586,3.4663,3.4705,3.474,3.4797,3.4842,3.4906,3.4935,3.5008,3.5048,3.5105,3.5135,3.5102,3.5249,3.521,3.5269,3.5268,3.5301,3.5299,3.5449,3.5324,3.5323,3.5323,3.5323,0,3.4466,3.4543,3.4587,3.4643,3.4731,3.4755,3.4842,3.4876,3.4927,3.4992,3.4999,3.5059,3.5094,3.516,3.5184,3.5277,3.5295,3.5314,3.5319,3.5314,3.5312,3.5342,3.5336,3.5327,3.5326,3.5325,3.5325,0,3.456,3.4592,3.4691,3.4755,3.4774,3.4836,3.4892,3.4948,3.4977,3.5058,3.5079,3.5126,3.5204,3.5239,3.5336,3.5352,3.5459,3.5459,3.5438,3.5441,3.5498,3.5493,3.5674,3.57,3.5556,3.5557,3.5558,0,3.4632,3.4691,3.4762,3.4805,3.484,3.4909,3.4954,3.4982,3.5029,3.5104,3.5151,3.5229,3.5293,3.5419,3.5463,3.5538,3.5541,3.5599,3.5552,3.5546,3.5544,3.5541,3.5548,3.5608,3.5609,3.5611,3.5612,0,3.4757,3.477,3.4835,3.4906,3.4959,3.5017,3.5073,3.5108,3.5144,3.5198,3.5277,3.5327,3.5426,3.5505,3.5583,3.562,3.5624,3.5626,3.5644,3.564,3.5626,3.5637,3.5464,3.5622,3.5621,3.562,3.562,3.5619,3.4844,3.4898,3.4956,3.5029,3.5073,3.5126,3.5182,3.5218,3.5284,3.5366,3.5379,3.5464,3.5526,3.563,3.5671,3.574,3.5726,3.5751,3.5758,3.5765,3.5769,3.5614,3.5754,3.5754,3.5754,3.5754,3.5753,0,3.4972,3.5009,3.5075,3.5154,3.5211,3.5206,3.5269,3.5318,3.5393,3.5449,3.5512,3.5605,3.5681,3.5732,3.581,3.5855,3.5859,3.5875,3.5873,3.5882,3.5776,3.5754,3.5871,3.5871,3.5871,3.5871,3.5871,3.5871,3.5045,3.5136,3.5157,3.5272,3.5309,3.5392,3.5429,3.5478,3.5523,3.5626,3.5689,3.5721,3.5776,3.5858,3.5929,3.5942,3.5972,3.5989,3.6002,3.5902,3.589,3.5878,3.5857,3.5995,3.5995,3.6103,3.6104,3.6104]},{"header":{"parameterUnit":"m.s-1","parameterCategory":1,"la1":30.2991,"la2":30.254,"lo1":-89.0895,"lo2":-89.0444,"dy":0.0017,"dx":0.0017,"nx":28,"ny":28,"refTime":"2025-07-30T21:00:00:Z","depth":0,"parameterNumber":3,"parameterNumberName":"V-component_of_WINDS"},"data":[0,0,0,0,0,0,0,0,0,0,0,0,0,0,0,0,0,0,0,0,0,0,0,0,0,0,0,0,0,0,0,0,0,0,0,0,0,0,0,0,0,0,0,0,0,0,0,0,0,0,0,0,0,0,0,0,0,0,0.6577,0.6577,0,0.657,0.657,0.657,0.6546,0.6546,0.6545,0.6545,0.6537,0.6538,0.6538,0,0,0,0,0,0,0,0,0,0,0,0,0,0.6572,0.6572,0.6577,0.6577,0.6577,0.657,0.657,0.657,0.6546,0.6546,0.6545,0.6544,0.6537,0.6538,0.6538,0,0,0,0,0,0,0,0,0,0,0,0,0,0.657,0.6572,0.6577,0.6565,0.6563,0.657,0.657,0.657,0.6546,0.6546,0.6545,0.6544,0.6537,0.6538,0.6538,0.6556,0,0,0.6539,0.654,0,0,0,0,0,0,0,0,0.657,0.657,0.6567,0.6566,0.6564,0.6558,0.6565,0.6565,0.6547,0.6553,0.6545,0.6544,0.6545,0.6545,0.6545,0.6556,0.6556,0.6539,0.654,0.654,0.654,0,0,0,0,0,0,0,0.657,0.6571,0.6574,0.6567,0.6565,0.6559,0.6558,0.6565,0.6553,0.6552,0.6551,0.655,0.6544,0.6545,0.6545,0.6556,0.6539,0.654,0.654,0.654,0.658,0.6581,0,0,0,0,0,0,0.6572,0.6571,0.6575,0.6574,0.6565,0.656,0.6559,0.6561,0.6553,0.6551,0.6551,0.6549,0.6544,0.6544,0.6544,0.6564,0.654,0.654,0.6541,0.6579,0.658,0.6581,0,0,0,0,0,0,0.6572,0.6573,0.6575,0.6572,0.6572,0.6561,0.6563,0.6561,0.6562,0.6552,0.655,0.6553,0.6544,0.6544,0.6553,0.6564,0.654,0.6541,0.6578,0.658,0.6581,0.6605,0,0,0,0,0,0,0.6572,0.6573,0.658,0.6572,0.6572,0.6584,0.6564,0.6562,0.6562,0.656,0.6554,0.6552,0.6543,0.6553,0.6554,0.6564,0.6541,0.6577,0.6579,0.658,0.6604,0.6607,0.661,0,0,0,0,0,0.6572,0.6588,0.658,0.6581,0.658,0.6585,0.6585,0.6574,0.6563,0.657,0.6564,0.6552,0.6563,0.6554,0.6555,0.6565,0.6577,0.6578,0.658,0.6602,0.6607,0.661,0,0,0,0,0,0,0.6597,0.6586,0.6578,0.6592,0.6589,0.6581,0.6589,0.6579,0.658,0.6577,0.6564,0.6563,0.6574,0.6571,0.6561,0.6582,0.6568,0.657,0.6584,0.6588,0.6592,0.6592,0.6542,0,0,0,0,0,0.6604,0.6608,0.6599,0.6612,0.6611,0.66,0.6602,0.6593,0.659,0.6589,0.6584,0.6581,0.6584,0.6586,0.6588,0.6603,0.6601,0.6611,0.6614,0.6617,0.6619,0.6626,0.663,0.6587,0.6587,0.6587,0,0,0.6619,0.6613,0.6617,0.6617,0.6614,0.6618,0.66,0.6605,0.6609,0.659,0.6599,0.6594,0.6591,0.6603,0.6608,0.6601,0.663,0.6619,0.6622,0.6622,0.6628,0.6632,0.6636,0.6588,0.6588,0.6588,0,0,0.6648,0.6645,0.6654,0.6652,0.6647,0.664,0.6642,0.6635,0.6631,0.664,0.6626,0.6629,0.6634,0.6632,0.6631,0.6659,0.6648,0.666,0.6678,0.6684,0.6688,0.6691,0.67,0.6703,0.6661,0.6662,0.6662,0,0.6667,0.6673,0.6661,0.6667,0.6667,0.665,0.666,0.6658,0.6655,0.6655,0.6646,0.6651,0.6648,0.6659,0.6665,0.6666,0.6668,0.666,0.6688,0.6691,0.6694,0.6702,0.6706,0.6663,0.6663,0.6663,0.6663,0,0.6696,0.6701,0.6709,0.6706,0.6707,0.6715,0.6703,0.6706,0.6697,0.6691,0.6699,0.6694,0.6694,0.6696,0.6688,0.6706,0.6701,0.6691,0.6676,0.6699,0.6707,0.671,0.6665,0.6664,0.6664,0.6664,0,0,0.6741,0.673,0.6733,0.6731,0.6725,0.6728,0.6735,0.6735,0.6737,0.6735,0.674,0.6744,0.6734,0.6734,0.6725,0.6732,0.6752,0.672,0.672,0.6726,0.6771,0.6778,0.6782,0.6745,0.6746,0.6746,0.6771,0,0.6768,0.6779,0.6768,0.6782,0.6785,0.6769,0.6775,0.6772,0.6766,0.6768,0.6761,0.6764,0.6751,0.675,0.6756,0.6749,0.6761,0.6747,0.675,0.675,0.6751,0.6787,0.6795,0.6818,0.6774,0.6775,0.6775,0,0.6801,0.68,0.6814,0.6806,0.6807,0.6813,0.6811,0.6813,0.6809,0.6804,0.6803,0.6792,0.6798,0.6784,0.6792,0.6782,0.6783,0.678,0.678,0.678,0.6764,0.6787,0.6826,0.6829,0.678,0.6779,0.6779,0,0.6832,0.6834,0.6842,0.6841,0.6832,0.6836,0.6832,0.6827,0.6828,0.6826,0.6826,0.6826,0.6826,0.6825,0.6815,0.6805,0.6824,0.6809,0.682,0.682,0.6824,0.6824,0.6863,0.6825,0.6825,0.6825,0.6825,0,0.6863,0.6872,0.6856,0.6861,0.687,0.6857,0.6866,0.6861,0.6857,0.686,0.6846,0.685,0.6836,0.6838,0.683,0.6837,0.6837,0.6833,0.6831,0.6834,0.6835,0.6834,0.6832,0.6826,0.6826,0.6826,0.6825,0,0.6899,0.6888,0.6896,0.6886,0.6884,0.6891,0.6883,0.6887,0.688,0.6885,0.6885,0.6874,0.6876,0.6865,0.6865,0.6859,0.6871,0.6866,0.6872,0.687,0.6882,0.6881,0.6922,0.6926,0.6886,0.6886,0.6887,0,0.6919,0.6925,0.6916,0.6917,0.6914,0.6917,0.6917,0.6904,0.6904,0.6899,0.6904,0.6905,0.6904,0.6907,0.6899,0.6899,0.6894,0.6908,0.6893,0.6896,0.6893,0.6893,0.6893,0.6911,0.6912,0.6912,0.6912,0,0.6956,0.695,0.6951,0.6949,0.695,0.6948,0.6945,0.6947,0.6933,0.6934,0.6936,0.6935,0.6935,0.6935,0.6933,0.6929,0.6918,0.6917,0.6919,0.6923,0.6926,0.6924,0.688,0.6916,0.6916,0.6915,0.6915,0.6915,0.6984,0.6989,0.6983,0.6984,0.698,0.6978,0.6981,0.6974,0.6975,0.6973,0.6965,0.6968,0.6963,0.6959,0.6956,0.6957,0.695,0.6954,0.6955,0.6956,0.6958,0.6926,0.6957,0.6957,0.6957,0.6957,0.6957,0,0.702,0.7015,0.7016,0.7012,0.7013,0.7002,0.6999,0.7,0.7002,0.6998,0.6998,0.6999,0.6999,0.6991,0.699,0.6993,0.6987,0.6993,0.6992,0.6991,0.6964,0.6962,0.6997,0.6997,0.6997,0.6997,0.6997,0.6997,0.7038,0.7045,0.7039,0.7044,0.7039,0.7041,0.704,0.7037,0.7034,0.7036,0.7036,0.703,0.7024,0.7022,0.7022,0.7019,0.702,0.7026,0.7022,0.6997,0.6993,0.699,0.6987,0.7027,0.7027,0.7049,0.7049,0.7049]}]]